owner,sensor,date,latitude,longitude,vertical_datum,sea_water_speed,direction_of_sea_water_velocity,upward_sea_water_velocity,qcFlag
Talos,ioos:station:wmo:42940:1,2024-05-01T00:05:00Z,28.4451,-89.0435,10.0,65.0,11144222
Talos,ioos:station:wmo:42940:1,2024-05-01T00:15:00Z,28.4451,-89.0435,10.0,65.3,11144222
Talos,ioos:station:wmo:42940:1,2024-05-01T00:25:00Z,28.4451,-89.0435,10.0,64.9,11144222
Talos,ioos:station:wmo:42940:1,2024-05-01T00:35:00Z,28.4451,-89.0435,10.0,64.7,11144222
Talos,ioos:station:wmo:42940:1,2024-05-01T00:45:00Z,28.4451,-89.0435,10.0,64.7,11144222
Talos,ioos:station:wmo:42940:1,2024-05-01T00:55:00Z,28.4451,-89.0435,10.0,64.5,11144222
Talos,ioos:station:wmo:42940:1,2024-05-01T01:05:00Z,28.4451,-89.0435,10.0,64.2,11144222
Talos,ioos:station:wmo:42940:1,2024-05-01T01:15:00Z,28.4451,-89.0435,10.0,63.9,11144222
Talos,ioos:station:wmo:42940:1,2024-05-01T01:25:00Z,28.4451,-89.0435,10.0,65.0,11144222
Talos,ioos:station:wmo:42940:1,2024-05-01T01:35:00Z,28.4451,-89.0435,10.0,65.2,11144222
Talos,ioos:station:wmo:42940:1,2024-05-01T01:45:00Z,28.4451,-89.0435,10.0,64.7,11144222
Talos,ioos:station:wmo:42940:1,2024-05-01T01:55:00Z,28.4451,-89.0435,10.0,64.0,11144222
Talos,ioos:station:wmo:42940:1,2024-05-01T02:05:00Z,28.4451,-89.0435,10.0,64.8,11144222
Talos,ioos:station:wmo:42940:1,2024-05-01T02:15:00Z,28.4451,-89.0435,10.0,64.8,11144222
Talos,ioos:station:wmo:42940:1,2024-05-01T02:25:00Z,28.4451,-89.0435,10.0,64.8,11144222
Talos,ioos:station:wmo:42940:1,2024-05-01T02:35:00Z,28.4451,-89.0435,10.0,64.8,11144222
Talos,ioos:station:wmo:42940:1,2024-05-01T02:45:00Z,28.4451,-89.0435,10.0,64.8,11144222
Talos,ioos:station:wmo:42940:1,2024-05-01T02:55:00Z,28.4451,-89.0435,10.0,64.8,11144222
Talos,ioos:station:wmo:42940:1,2024-05-01T03:05:00Z,28.4451,-89.0435,10.0,64.2,11144222
Talos,ioos:station:wmo:42940:1,2024-05-01T03:15:00Z,28.4451,-89.0435,10.0,64.7,11144222
Talos,ioos:station:wmo:42940:1,2024-05-01T03:25:00Z,28.4451,-89.0435,10.0,64.8,11144222
Talos,ioos:station:wmo:42940:1,2024-05-01T03:35:00Z,28.4451,-89.0435,10.0,64.6,11144222
Talos,ioos:station:wmo:42940:1,2024-05-01T03:45:00Z,28.4451,-89.0435,10.0,64.4,11144222
Talos,ioos:station:wmo:42940:1,2024-05-01T03:55:00Z,28.4451,-89.0435,10.0,64.1,11144222
Talos,ioos:station:wmo:42940:1,2024-05-01T04:05:00Z,28.4451,-89.0435,10.0,64.1,11144222
Talos,ioos:station:wmo:42940:1,2024-05-01T04:15:00Z,28.4451,-89.0435,10.0,65.0,11144222
Talos,ioos:station:wmo:42940:1,2024-05-01T04:25:00Z,28.4451,-89.0435,10.0,65.0,11144222
Talos,ioos:station:wmo:42940:1,2024-05-01T04:35:00Z,28.4451,-89.0435,10.0,64.3,11144222
Talos,ioos:station:wmo:42940:1,2024-05-01T04:45:00Z,28.4451,-89.0435,10.0,64.5,11144222
Talos,ioos:station:wmo:42940:1,2024-05-01T04:55:00Z,28.4451,-89.0435,10.0,64.5,11144222
Talos,ioos:station:wmo:42940:1,2024-05-01T05:05:00Z,28.4451,-89.0435,10.0,64.2,11144222
Talos,ioos:station:wmo:42940:1,2024-05-01T05:15:00Z,28.4451,-89.0435,10.0,64.7,11144222
Talos,ioos:station:wmo:42940:1,2024-05-01T05:25:00Z,28.4451,-89.0435,10.0,64.6,11144222
Talos,ioos:station:wmo:42940:1,2024-05-01T05:35:00Z,28.4451,-89.0435,10.0,64.1,11144222
Talos,ioos:station:wmo:42940:1,2024-05-01T05:45:00Z,28.4451,-89.0435,10.0,64.9,11144222
Talos,ioos:station:wmo:42940:1,2024-05-01T05:55:00Z,28.4451,-89.0435,10.0,64.0,11144222
Talos,ioos:station:wmo:42940:1,2024-05-01T06:05:00Z,28.4451,-89.0435,10.0,64.2,11144222
Talos,ioos:station:wmo:42940:1,2024-05-01T06:15:00Z,28.4451,-89.0435,10.0,64.2,11144222
Talos,ioos:station:wmo:42940:1,2024-05-01T06:25:00Z,28.4451,-89.0435,10.0,65.5,11144222
Talos,ioos:station:wmo:42940:1,2024-05-01T06:35:00Z,28.4451,-89.0435,10.0,65.5,11144222
Talos,ioos:station:wmo:42940:1,2024-05-01T06:45:00Z,28.4451,-89.0435,10.0,65.4,11144222
Talos,ioos:station:wmo:42940:1,2024-05-01T06:55:00Z,28.4451,-89.0435,10.0,65.8,11144222
Talos,ioos:station:wmo:42940:1,2024-05-01T07:05:00Z,28.4451,-89.0435,10.0,65.6,11144222
Talos,ioos:station:wmo:42940:1,2024-05-01T07:15:00Z,28.4451,-89.0435,10.0,65.5,11144222
Talos,ioos:station:wmo:42940:1,2024-05-01T07:25:00Z,28.4451,-89.0435,10.0,65.5,11144222
Talos,ioos:station:wmo:42940:1,2024-05-01T07:35:00Z,28.4451,-89.0435,10.0,65.5,11144222
Talos,ioos:station:wmo:42940:1,2024-05-01T07:45:00Z,28.4451,-89.0435,10.0,65.4,11144222
Talos,ioos:station:wmo:42940:1,2024-05-01T07:55:00Z,28.4451,-89.0435,10.0,65.4,11144222
Talos,ioos:station:wmo:42940:1,2024-05-01T08:05:00Z,28.4451,-89.0435,10.0,65.0,11144222
Talos,ioos:station:wmo:42940:1,2024-05-01T08:15:00Z,28.4451,-89.0435,10.0,65.5,11144222
Talos,ioos:station:wmo:42940:1,2024-05-01T08:25:00Z,28.4451,-89.0435,10.0,65.4,11144222
Talos,ioos:station:wmo:42940:1,2024-05-01T08:35:00Z,28.4451,-89.0435,10.0,65.2,11144222
Talos,ioos:station:wmo:42940:1,2024-05-01T08:45:00Z,28.4451,-89.0435,10.0,65.0,11144222
Talos,ioos:station:wmo:42940:1,2024-05-01T08:55:00Z,28.4451,-89.0435,10.0,65.1,11144222
Talos,ioos:station:wmo:42940:1,2024-05-01T09:05:00Z,28.4451,-89.0435,10.0,65.0,11144222
Talos,ioos:station:wmo:42940:1,2024-05-01T09:15:00Z,28.4451,-89.0435,10.0,65.6,11144222
Talos,ioos:station:wmo:42940:1,2024-05-01T09:25:00Z,28.4451,-89.0435,10.0,65.2,11144222
Talos,ioos:station:wmo:42940:1,2024-05-01T09:35:00Z,28.4451,-89.0435,10.0,65.4,11144222
Talos,ioos:station:wmo:42940:1,2024-05-01T09:45:00Z,28.4451,-89.0435,10.0,65.5,11144222
Talos,ioos:station:wmo:42940:1,2024-05-01T09:55:00Z,28.4451,-89.0435,10.0,65.5,11144222
Talos,ioos:station:wmo:42940:1,2024-05-01T10:05:00Z,28.4451,-89.0435,10.0,65.3,11144222
Talos,ioos:station:wmo:42940:1,2024-05-01T10:15:00Z,28.4451,-89.0435,10.0,64.8,11144222
Talos,ioos:station:wmo:42940:1,2024-05-01T10:25:00Z,28.4451,-89.0435,10.0,65.2,11144222
Talos,ioos:station:wmo:42940:1,2024-05-01T10:35:00Z,28.4451,-89.0435,10.0,64.9,11144222
Talos,ioos:station:wmo:42940:1,2024-05-01T10:45:00Z,28.4451,-89.0435,10.0,64.9,11144222
Talos,ioos:station:wmo:42940:1,2024-05-01T10:55:00Z,28.4451,-89.0435,10.0,64.9,11144222
Talos,ioos:station:wmo:42940:1,2024-05-01T11:05:00Z,28.4451,-89.0435,10.0,65.0,11144222
Talos,ioos:station:wmo:42940:1,2024-05-01T11:15:00Z,28.4451,-89.0435,10.0,65.2,11144222
Talos,ioos:station:wmo:42940:1,2024-05-01T11:25:00Z,28.4451,-89.0435,10.0,65.0,11144222
Talos,ioos:station:wmo:42940:1,2024-05-01T11:35:00Z,28.4451,-89.0435,10.0,64.7,11144222
Talos,ioos:station:wmo:42940:1,2024-05-01T11:45:00Z,28.4451,-89.0435,10.0,64.8,11144222
Talos,ioos:station:wmo:42940:1,2024-05-01T11:55:00Z,28.4451,-89.0435,10.0,65.4,11144222
Talos,ioos:station:wmo:42940:1,2024-05-01T12:05:00Z,28.4451,-89.0435,10.0,65.4,11144222
Talos,ioos:station:wmo:42940:1,2024-05-01T12:15:00Z,28.4451,-89.0435,10.0,65.2,11144222
Talos,ioos:station:wmo:42940:1,2024-05-01T12:25:00Z,28.4451,-89.0435,10.0,65.2,11144222
Talos,ioos:station:wmo:42940:1,2024-05-01T12:35:00Z,28.4451,-89.0435,10.0,65.4,11144222
Talos,ioos:station:wmo:42940:1,2024-05-01T12:45:00Z,28.4451,-89.0435,10.0,65.1,11144222
Talos,ioos:station:wmo:42940:1,2024-05-01T12:55:00Z,28.4451,-89.0435,10.0,65.3,11144222
Talos,ioos:station:wmo:42940:1,2024-05-01T13:05:00Z,28.4451,-89.0435,10.0,65.5,11144222
Talos,ioos:station:wmo:42940:1,2024-05-01T13:15:00Z,28.4451,-89.0435,10.0,64.9,11144222
Talos,ioos:station:wmo:42940:1,2024-05-01T13:25:00Z,28.4451,-89.0435,10.0,65.3,11144222
Talos,ioos:station:wmo:42940:1,2024-05-01T13:35:00Z,28.4451,-89.0435,10.0,64.8,11144222
Talos,ioos:station:wmo:42940:1,2024-05-01T13:45:00Z,28.4451,-89.0435,10.0,65.3,11144222
Talos,ioos:station:wmo:42940:1,2024-05-01T13:55:00Z,28.4451,-89.0435,10.0,64.8,11144222
Talos,ioos:station:wmo:42940:1,2024-05-01T14:05:00Z,28.4451,-89.0435,10.0,65.0,11144222
Talos,ioos:station:wmo:42940:1,2024-05-01T14:15:00Z,28.4451,-89.0435,10.0,65.4,11144222
Talos,ioos:station:wmo:42940:1,2024-05-01T14:25:00Z,28.4451,-89.0435,10.0,65.5,11144222
Talos,ioos:station:wmo:42940:1,2024-05-01T14:35:00Z,28.4451,-89.0435,10.0,65.3,11144222
Talos,ioos:station:wmo:42940:1,2024-05-01T14:45:00Z,28.4451,-89.0435,10.0,65.0,11144222
Talos,ioos:station:wmo:42940:1,2024-05-01T14:55:00Z,28.4451,-89.0435,10.0,64.9,11144222
Talos,ioos:station:wmo:42940:1,2024-05-01T15:05:00Z,28.4451,-89.0435,10.0,65.5,11144222
Talos,ioos:station:wmo:42940:1,2024-05-01T15:15:00Z,28.4451,-89.0435,10.0,65.4,11144222
Talos,ioos:station:wmo:42940:1,2024-05-01T15:25:00Z,28.4451,-89.0435,10.0,65.2,11144222
Talos,ioos:station:wmo:42940:1,2024-05-01T15:35:00Z,28.4451,-89.0435,10.0,65.4,11144222
Talos,ioos:station:wmo:42940:1,2024-05-01T15:45:00Z,28.4451,-89.0435,10.0,65.5,11144222
Talos,ioos:station:wmo:42940:1,2024-05-01T15:55:00Z,28.4451,-89.0435,10.0,65.2,11144222
Talos,ioos:station:wmo:42940:1,2024-05-01T16:05:00Z,28.4451,-89.0435,10.0,64.8,11144222
Talos,ioos:station:wmo:42940:1,2024-05-01T16:15:00Z,28.4451,-89.0435,10.0,64.6,11144222
Talos,ioos:station:wmo:42940:1,2024-05-01T16:25:00Z,28.4451,-89.0435,10.0,65.1,11144222
Talos,ioos:station:wmo:42940:1,2024-05-01T16:35:00Z,28.4451,-89.0435,10.0,65.3,11144222
Talos,ioos:station:wmo:42940:1,2024-05-01T16:45:00Z,28.4451,-89.0435,10.0,65.3,11144222
Talos,ioos:station:wmo:42940:1,2024-05-01T16:55:00Z,28.4451,-89.0435,10.0,65.4,11144222
Talos,ioos:station:wmo:42940:1,2024-05-01T17:05:00Z,28.4451,-89.0435,10.0,65.4,11144222
Talos,ioos:station:wmo:42940:1,2024-05-01T17:15:00Z,28.4451,-89.0435,10.0,65.5,11144222
Talos,ioos:station:wmo:42940:1,2024-05-01T17:25:00Z,28.4451,-89.0435,10.0,64.8,11144222
Talos,ioos:station:wmo:42940:1,2024-05-01T17:35:00Z,28.4451,-89.0435,10.0,65.2,11144222
Talos,ioos:station:wmo:42940:1,2024-05-01T17:45:00Z,28.4451,-89.0435,10.0,65.5,11144222
Talos,ioos:station:wmo:42940:1,2024-05-01T17:55:00Z,28.4451,-89.0435,10.0,65.4,11144222
Talos,ioos:station:wmo:42940:1,2024-05-01T18:05:00Z,28.4451,-89.0435,10.0,65.4,11144222
Talos,ioos:station:wmo:42940:1,2024-05-01T18:15:00Z,28.4451,-89.0435,10.0,65.0,11144222
Talos,ioos:station:wmo:42940:1,2024-05-01T18:25:00Z,28.4451,-89.0435,10.0,65.0,11144222
Talos,ioos:station:wmo:42940:1,2024-05-01T18:35:00Z,28.4451,-89.0435,10.0,65.1,11144222
Talos,ioos:station:wmo:42940:1,2024-05-01T18:45:00Z,28.4451,-89.0435,10.0,65.3,11144222
Talos,ioos:station:wmo:42940:1,2024-05-01T18:55:00Z,28.4451,-89.0435,10.0,64.9,11144222
Talos,ioos:station:wmo:42940:1,2024-05-01T19:05:00Z,28.4451,-89.0435,10.0,64.6,11144222
Talos,ioos:station:wmo:42940:1,2024-05-01T19:15:00Z,28.4451,-89.0435,10.0,64.6,11144222
Talos,ioos:station:wmo:42940:1,2024-05-01T19:25:00Z,28.4451,-89.0435,10.0,65.2,11144222
Talos,ioos:station:wmo:42940:1,2024-05-01T19:35:00Z,28.4451,-89.0435,10.0,64.7,11144222
Talos,ioos:station:wmo:42940:1,2024-05-01T19:45:00Z,28.4451,-89.0435,10.0,64.6,11144222
Talos,ioos:station:wmo:42940:1,2024-05-01T19:55:00Z,28.4451,-89.0435,10.0,64.8,11144222
Talos,ioos:station:wmo:42940:1,2024-05-01T20:05:00Z,28.4451,-89.0435,10.0,65.2,11144222
Talos,ioos:station:wmo:42940:1,2024-05-01T20:15:00Z,28.4451,-89.0435,10.0,64.8,11144222
Talos,ioos:station:wmo:42940:1,2024-05-01T20:25:00Z,28.4451,-89.0435,10.0,64.8,11144222
Talos,ioos:station:wmo:42940:1,2024-05-01T20:35:00Z,28.4451,-89.0435,10.0,65.3,11144222
Talos,ioos:station:wmo:42940:1,2024-05-01T20:45:00Z,28.4451,-89.0435,10.0,65.2,11144222
Talos,ioos:station:wmo:42940:1,2024-05-01T20:55:00Z,28.4451,-89.0435,10.0,65.0,11144222
Talos,ioos:station:wmo:42940:1,2024-05-01T21:05:00Z,28.4451,-89.0435,10.0,64.6,11144222
Talos,ioos:station:wmo:42940:1,2024-05-01T21:15:00Z,28.4451,-89.0435,10.0,65.2,11144222
Talos,ioos:station:wmo:42940:1,2024-05-01T21:25:00Z,28.4451,-89.0435,10.0,65.2,11144222
Talos,ioos:station:wmo:42940:1,2024-05-01T21:35:00Z,28.4451,-89.0435,10.0,64.8,11144222
Talos,ioos:station:wmo:42940:1,2024-05-01T21:45:00Z,28.4451,-89.0435,10.0,64.8,11144222
Talos,ioos:station:wmo:42940:1,2024-05-01T21:55:00Z,28.4451,-89.0435,10.0,64.7,11144222
Talos,ioos:station:wmo:42940:1,2024-05-01T22:05:00Z,28.4451,-89.0435,10.0,65.0,11144222
Talos,ioos:station:wmo:42940:1,2024-05-01T22:15:00Z,28.4451,-89.0435,10.0,65.1,11144222
Talos,ioos:station:wmo:42940:1,2024-05-01T22:25:00Z,28.4451,-89.0435,10.0,65.0,11144222
Talos,ioos:station:wmo:42940:1,2024-05-01T22:35:00Z,28.4451,-89.0435,10.0,65.0,11144222
Talos,ioos:station:wmo:42940:1,2024-05-01T22:45:00Z,28.4451,-89.0435,10.0,64.8,11144222
Talos,ioos:station:wmo:42940:1,2024-05-01T22:55:00Z,28.4451,-89.0435,10.0,64.8,11144222
Talos,ioos:station:wmo:42940:1,2024-05-01T23:05:00Z,28.4451,-89.0435,10.0,64.7,11144222
Talos,ioos:station:wmo:42940:1,2024-05-01T23:15:00Z,28.4451,-89.0435,10.0,64.9,11144222
Talos,ioos:station:wmo:42940:1,2024-05-01T23:25:00Z,28.4451,-89.0435,10.0,65.2,11144222
Talos,ioos:station:wmo:42940:1,2024-05-01T23:35:00Z,28.4451,-89.0435,10.0,65.2,11144222
Talos,ioos:station:wmo:42940:1,2024-05-01T23:45:00Z,28.4451,-89.0435,10.0,65.2,11144222
Talos,ioos:station:wmo:42940:1,2024-05-01T23:55:00Z,28.4451,-89.0435,10.0,65.3,11144222
Talos,ioos:station:wmo:42940:1,2024-05-02T00:05:00Z,28.4451,-89.0435,10.0,65.1,11144222
Talos,ioos:station:wmo:42940:1,2024-05-02T00:15:00Z,28.4451,-89.0435,10.0,64.9,11144222
Talos,ioos:station:wmo:42940:1,2024-05-02T00:25:00Z,28.4451,-89.0435,10.0,65.3,11144222
Talos,ioos:station:wmo:42940:1,2024-05-02T00:35:00Z,28.4451,-89.0435,10.0,65.1,11144222
Talos,ioos:station:wmo:42940:1,2024-05-02T00:45:00Z,28.4451,-89.0435,10.0,65.1,11144222
Talos,ioos:station:wmo:42940:1,2024-05-02T00:55:00Z,28.4451,-89.0435,10.0,65.2,11144222
Talos,ioos:station:wmo:42940:1,2024-05-02T01:05:00Z,28.4451,-89.0435,10.0,64.9,11144222
Talos,ioos:station:wmo:42940:1,2024-05-02T01:15:00Z,28.4451,-89.0435,10.0,65.2,11144222
Talos,ioos:station:wmo:42940:1,2024-05-02T01:25:00Z,28.4451,-89.0435,10.0,64.9,11144222
Talos,ioos:station:wmo:42940:1,2024-05-02T01:35:00Z,28.4451,-89.0435,10.0,64.9,11144222
Talos,ioos:station:wmo:42940:1,2024-05-02T01:45:00Z,28.4451,-89.0435,10.0,65.1,11144222
Talos,ioos:station:wmo:42940:1,2024-05-02T01:55:00Z,28.4451,-89.0435,10.0,64.9,11144222
Talos,ioos:station:wmo:42940:1,2024-05-02T02:05:00Z,28.4451,-89.0435,10.0,65.0,11144222
Talos,ioos:station:wmo:42940:1,2024-05-02T02:15:00Z,28.4451,-89.0435,10.0,64.9,11144222
Talos,ioos:station:wmo:42940:1,2024-05-02T02:25:00Z,28.4451,-89.0435,10.0,65.0,11144222
Talos,ioos:station:wmo:42940:1,2024-05-02T02:35:00Z,28.4451,-89.0435,10.0,64.8,11144222
Talos,ioos:station:wmo:42940:1,2024-05-02T02:45:00Z,28.4451,-89.0435,10.0,65.2,11144222
Talos,ioos:station:wmo:42940:1,2024-05-02T02:55:00Z,28.4451,-89.0435,10.0,65.1,11144222
Talos,ioos:station:wmo:42940:1,2024-05-02T03:05:00Z,28.4451,-89.0435,10.0,65.0,11144222
Talos,ioos:station:wmo:42940:1,2024-05-02T03:15:00Z,28.4451,-89.0435,10.0,65.0,11144222
Talos,ioos:station:wmo:42940:1,2024-05-02T03:25:00Z,28.4451,-89.0435,10.0,65.2,11144222
Talos,ioos:station:wmo:42940:1,2024-05-02T03:35:00Z,28.4451,-89.0435,10.0,65.2,11144222
Talos,ioos:station:wmo:42940:1,2024-05-02T03:45:00Z,28.4451,-89.0435,10.0,64.8,11144222
Talos,ioos:station:wmo:42940:1,2024-05-02T03:55:00Z,28.4451,-89.0435,10.0,64.8,11144222
Talos,ioos:station:wmo:42940:1,2024-05-02T04:05:00Z,28.4451,-89.0435,10.0,64.6,11144222
Talos,ioos:station:wmo:42940:1,2024-05-02T04:15:00Z,28.4451,-89.0435,10.0,65.0,11144222
Talos,ioos:station:wmo:42940:1,2024-05-02T04:25:00Z,28.4451,-89.0435,10.0,65.1,11144222
Talos,ioos:station:wmo:42940:1,2024-05-02T04:35:00Z,28.4451,-89.0435,10.0,64.6,11144222
Talos,ioos:station:wmo:42940:1,2024-05-02T04:45:00Z,28.4451,-89.0435,10.0,65.2,11144222
Talos,ioos:station:wmo:42940:1,2024-05-02T04:55:00Z,28.4451,-89.0435,10.0,65.1,11144222
Talos,ioos:station:wmo:42940:1,2024-05-02T05:05:00Z,28.4451,-89.0435,10.0,65.0,11144222
Talos,ioos:station:wmo:42940:1,2024-05-02T05:15:00Z,28.4451,-89.0435,10.0,64.8,11144222
Talos,ioos:station:wmo:42940:1,2024-05-02T05:25:00Z,28.4451,-89.0435,10.0,64.5,11144222
Talos,ioos:station:wmo:42940:1,2024-05-02T05:35:00Z,28.4451,-89.0435,10.0,65.0,11144222
Talos,ioos:station:wmo:42940:1,2024-05-02T05:45:00Z,28.4451,-89.0435,10.0,64.6,11144222
Talos,ioos:station:wmo:42940:1,2024-05-02T05:55:00Z,28.4451,-89.0435,10.0,65.2,11144222
Talos,ioos:station:wmo:42940:1,2024-05-02T06:05:00Z,28.4451,-89.0435,10.0,65.2,11144222
Talos,ioos:station:wmo:42940:1,2024-05-02T06:15:00Z,28.4451,-89.0435,10.0,64.7,11144222
Talos,ioos:station:wmo:42940:1,2024-05-02T06:25:00Z,28.4451,-89.0435,10.0,64.7,11144222
Talos,ioos:station:wmo:42940:1,2024-05-02T06:35:00Z,28.4451,-89.0435,10.0,64.7,11144222
Talos,ioos:station:wmo:42940:1,2024-05-02T06:45:00Z,28.4451,-89.0435,10.0,65.2,11144222
Talos,ioos:station:wmo:42940:1,2024-05-02T06:55:00Z,28.4451,-89.0435,10.0,64.6,11144222
Talos,ioos:station:wmo:42940:1,2024-05-02T07:05:00Z,28.4451,-89.0435,10.0,64.6,11144222
Talos,ioos:station:wmo:42940:1,2024-05-02T07:15:00Z,28.4451,-89.0435,10.0,64.8,11144222
Talos,ioos:station:wmo:42940:1,2024-05-02T07:25:00Z,28.4451,-89.0435,10.0,64.5,11144222
Talos,ioos:station:wmo:42940:1,2024-05-02T07:35:00Z,28.4451,-89.0435,10.0,64.9,11144222
Talos,ioos:station:wmo:42940:1,2024-05-02T07:45:00Z,28.4451,-89.0435,10.0,64.5,11144222
Talos,ioos:station:wmo:42940:1,2024-05-02T07:55:00Z,28.4451,-89.0435,10.0,64.7,11144222
Talos,ioos:station:wmo:42940:1,2024-05-02T08:05:00Z,28.4451,-89.0435,10.0,64.9,11144222
Talos,ioos:station:wmo:42940:1,2024-05-02T08:15:00Z,28.4451,-89.0435,10.0,64.8,11144222
Talos,ioos:station:wmo:42940:1,2024-05-02T08:25:00Z,28.4451,-89.0435,10.0,64.3,11144222
Talos,ioos:station:wmo:42940:1,2024-05-02T08:35:00Z,28.4451,-89.0435,10.0,64.9,11144222
Talos,ioos:station:wmo:42940:1,2024-05-02T08:45:00Z,28.4451,-89.0435,10.0,64.3,11144222
Talos,ioos:station:wmo:42940:1,2024-05-02T08:55:00Z,28.4451,-89.0435,10.0,64.8,11144222
Talos,ioos:station:wmo:42940:1,2024-05-02T09:05:00Z,28.4451,-89.0435,10.0,64.8,11144222
Talos,ioos:station:wmo:42940:1,2024-05-02T09:15:00Z,28.4451,-89.0435,10.0,65.0,11144222
Talos,ioos:station:wmo:42940:1,2024-05-02T09:25:00Z,28.4451,-89.0435,10.0,64.7,11144222
Talos,ioos:station:wmo:42940:1,2024-05-02T09:35:00Z,28.4451,-89.0435,10.0,64.8,11144222
Talos,ioos:station:wmo:42940:1,2024-05-02T09:45:00Z,28.4451,-89.0435,10.0,64.5,11144222
Talos,ioos:station:wmo:42940:1,2024-05-02T09:55:00Z,28.4451,-89.0435,10.0,64.4,11144222
Talos,ioos:station:wmo:42940:1,2024-05-02T10:05:00Z,28.4451,-89.0435,10.0,64.8,11144222
Talos,ioos:station:wmo:42940:1,2024-05-02T10:15:00Z,28.4451,-89.0435,10.0,64.2,11144222
Talos,ioos:station:wmo:42940:1,2024-05-02T10:25:00Z,28.4451,-89.0435,10.0,64.3,11144222
Talos,ioos:station:wmo:42940:1,2024-05-02T10:35:00Z,28.4451,-89.0435,10.0,64.5,11144222
Talos,ioos:station:wmo:42940:1,2024-05-02T10:45:00Z,28.4451,-89.0435,10.0,64.4,11144222
Talos,ioos:station:wmo:42940:1,2024-05-02T10:55:00Z,28.4451,-89.0435,10.0,64.5,11144222
Talos,ioos:station:wmo:42940:1,2024-05-02T11:05:00Z,28.4451,-89.0435,10.0,64.3,11144222
Talos,ioos:station:wmo:42940:1,2024-05-02T11:15:00Z,28.4451,-89.0435,10.0,64.4,11144222
Talos,ioos:station:wmo:42940:1,2024-05-02T11:25:00Z,28.4451,-89.0435,10.0,64.5,11144222
Talos,ioos:station:wmo:42940:1,2024-05-02T11:35:00Z,28.4451,-89.0435,10.0,64.0,11144222
Talos,ioos:station:wmo:42940:1,2024-05-02T11:45:00Z,28.4451,-89.0435,10.0,63.8,11144222
Talos,ioos:station:wmo:42940:1,2024-05-02T11:55:00Z,28.4451,-89.0435,10.0,63.2,11144222
Talos,ioos:station:wmo:42940:1,2024-05-02T12:05:00Z,28.4451,-89.0435,10.0,61.9,11144222
Talos,ioos:station:wmo:42940:1,2024-05-02T12:15:00Z,28.4451,-89.0435,10.0,62.0,11144222
Talos,ioos:station:wmo:42940:1,2024-05-02T12:25:00Z,28.4451,-89.0435,10.0,63.0,11144222
Talos,ioos:station:wmo:42940:1,2024-05-02T12:35:00Z,28.4451,-89.0435,10.0,62.3,11144222
Talos,ioos:station:wmo:42940:1,2024-05-02T12:45:00Z,28.4451,-89.0435,10.0,62.2,11144222
Talos,ioos:station:wmo:42940:1,2024-05-02T12:55:00Z,28.4451,-89.0435,10.0,62.0,11144222
Talos,ioos:station:wmo:42940:1,2024-05-02T13:05:00Z,28.4451,-89.0435,10.0,62.3,11144222
Talos,ioos:station:wmo:42940:1,2024-05-02T13:15:00Z,28.4451,-89.0435,10.0,62.8,11144222
Talos,ioos:station:wmo:42940:1,2024-05-02T13:25:00Z,28.4451,-89.0435,10.0,62.4,11144222
Talos,ioos:station:wmo:42940:1,2024-05-02T13:35:00Z,28.4451,-89.0435,10.0,62.3,11144222
Talos,ioos:station:wmo:42940:1,2024-05-02T13:45:00Z,28.4451,-89.0435,10.0,61.8,11144222
Talos,ioos:station:wmo:42940:1,2024-05-02T13:55:00Z,28.4451,-89.0435,10.0,61.7,11144222
Talos,ioos:station:wmo:42940:1,2024-05-02T14:05:00Z,28.4451,-89.0435,10.0,61.6,11144222
Talos,ioos:station:wmo:42940:1,2024-05-02T14:15:00Z,28.4451,-89.0435,10.0,61.2,11144222
Talos,ioos:station:wmo:42940:1,2024-05-02T14:25:00Z,28.4451,-89.0435,10.0,62.0,11144222
Talos,ioos:station:wmo:42940:1,2024-05-02T14:35:00Z,28.4451,-89.0435,10.0,62.8,11144222
Talos,ioos:station:wmo:42940:1,2024-05-02T14:45:00Z,28.4451,-89.0435,10.0,61.8,11144222
Talos,ioos:station:wmo:42940:1,2024-05-02T14:55:00Z,28.4451,-89.0435,10.0,61.4,11144222
Talos,ioos:station:wmo:42940:1,2024-05-02T15:05:00Z,28.4451,-89.0435,10.0,61.7,11144222
Talos,ioos:station:wmo:42940:1,2024-05-02T15:15:00Z,28.4451,-89.0435,10.0,62.4,11144222
Talos,ioos:station:wmo:42940:1,2024-05-02T15:25:00Z,28.4451,-89.0435,10.0,61.9,11144222
Talos,ioos:station:wmo:42940:1,2024-05-02T15:35:00Z,28.4451,-89.0435,10.0,61.9,11144222
Talos,ioos:station:wmo:42940:1,2024-05-02T15:45:00Z,28.4451,-89.0435,10.0,62.0,11144222
Talos,ioos:station:wmo:42940:1,2024-05-02T15:55:00Z,28.4451,-89.0435,10.0,62.0,11144222
Talos,ioos:station:wmo:42940:1,2024-05-02T16:05:00Z,28.4451,-89.0435,10.0,61.5,11144222
Talos,ioos:station:wmo:42940:1,2024-05-02T16:15:00Z,28.4451,-89.0435,10.0,61.8,11144222
Talos,ioos:station:wmo:42940:1,2024-05-02T16:25:00Z,28.4451,-89.0435,10.0,62.3,11144222
Talos,ioos:station:wmo:42940:1,2024-05-02T16:35:00Z,28.4451,-89.0435,10.0,62.1,11144222
Talos,ioos:station:wmo:42940:1,2024-05-02T16:45:00Z,28.4451,-89.0435,10.0,62.3,11144222
Talos,ioos:station:wmo:42940:1,2024-05-02T16:55:00Z,28.4451,-89.0435,10.0,62.0,11144222
Talos,ioos:station:wmo:42940:1,2024-05-02T17:05:00Z,28.4451,-89.0435,10.0,62.2,11144222
Talos,ioos:station:wmo:42940:1,2024-05-02T17:15:00Z,28.4451,-89.0435,10.0,62.1,11144222
Talos,ioos:station:wmo:42940:1,2024-05-02T17:25:00Z,28.4451,-89.0435,10.0,62.1,11144222
Talos,ioos:station:wmo:42940:1,2024-05-02T17:35:00Z,28.4451,-89.0435,10.0,61.8,11144222
Talos,ioos:station:wmo:42940:1,2024-05-02T17:45:00Z,28.4451,-89.0435,10.0,62.4,11144222
Talos,ioos:station:wmo:42940:1,2024-05-02T17:55:00Z,28.4451,-89.0435,10.0,62.6,11144222
Talos,ioos:station:wmo:42940:1,2024-05-02T18:05:00Z,28.4451,-89.0435,10.0,62.8,11144222
Talos,ioos:station:wmo:42940:1,2024-05-02T18:15:00Z,28.4451,-89.0435,10.0,62.5,11144222
Talos,ioos:station:wmo:42940:1,2024-05-02T18:25:00Z,28.4451,-89.0435,10.0,62.7,11144222
Talos,ioos:station:wmo:42940:1,2024-05-02T18:35:00Z,28.4451,-89.0435,10.0,62.7,11144222
Talos,ioos:station:wmo:42940:1,2024-05-02T18:45:00Z,28.4451,-89.0435,10.0,62.2,11144222
Talos,ioos:station:wmo:42940:1,2024-05-02T18:55:00Z,28.4451,-89.0435,10.0,62.1,11144222
Talos,ioos:station:wmo:42940:1,2024-05-02T19:05:00Z,28.4451,-89.0435,10.0,62.6,11144222
Talos,ioos:station:wmo:42940:1,2024-05-02T19:15:00Z,28.4451,-89.0435,10.0,62.1,11144222
Talos,ioos:station:wmo:42940:1,2024-05-02T19:25:00Z,28.4451,-89.0435,10.0,62.2,11144222
Talos,ioos:station:wmo:42940:1,2024-05-02T19:35:00Z,28.4451,-89.0435,10.0,62.0,11144222
Talos,ioos:station:wmo:42940:1,2024-05-02T19:45:00Z,28.4451,-89.0435,10.0,62.1,11144222
Talos,ioos:station:wmo:42940:1,2024-05-02T19:55:00Z,28.4451,-89.0435,10.0,62.0,11144222
Talos,ioos:station:wmo:42940:1,2024-05-02T20:05:00Z,28.4451,-89.0435,10.0,61.9,11144222
Talos,ioos:station:wmo:42940:1,2024-05-02T20:15:00Z,28.4451,-89.0435,10.0,62.0,11144222
Talos,ioos:station:wmo:42940:1,2024-05-02T20:25:00Z,28.4451,-89.0435,10.0,62.0,11144222
Talos,ioos:station:wmo:42940:1,2024-05-02T20:35:00Z,28.4451,-89.0435,10.0,61.7,11144222